This demonstration page uses our WeatherBlox Daily Observations layout. Learn more.

Left ArrowRight Arrow

44.89941, -97.11507

Hourly Observations for January 15, 2017

Temp ( °F °C ) Dew Point ( °F °C ) Humidity (%) Winds ( mph kmh ) Pressure ( in mb ) Visibility ( mi km ) Precip ( " mm )
12:53 am 00:53 Clear 0 -17.8 -3 -19.4 87 87 Calm 30.45 1031 9 14 0.00 0.00
1:53 am 01:53 Clear 0 -17.8 -3 -19.4 87 87 SSE 6 9 30.42 1030 9 14 0.00 0.00
2:53 am 02:53 Clear 2 -16.7 -2 -18.9 83 83 SSE 6 9 30.42 1030 10 16 0.00 0.00
3:53 am 03:53 Clear 2 -16.7 -1 -18.3 88 88 S 8 13 30.40 1030 10 16 0.00 0.00
4:53 am 04:53 Clear 3 -16.1 -1 -18.3 83 83 SSE 8 13 30.39 1029 10 16 0.00 0.00
5:53 am 05:53 Clear 4 -15.6 0 -17.8 83 83 SSE 8 13 30.37 1028 10 16 0.00 0.00
6:53 am 06:53 Clear 6 -14.4 3 -16.1 87 87 SSE 8 13 30.35 1028 10 16 0.00 0.00
7:53 am 07:53 Clear 5 -15 2 -16.7 87 87 S 7 11 30.34 1028 10 16 0.00 0.00
8:53 am 08:53 Sunny 6 -14.4 3 -16.1 87 87 S 8 13 30.35 1028 8 13 0.00 0.00
9:53 am 09:53 Sunny 10 -12.2 7 -13.9 87 87 SSE 10 17 30.35 1028 8 13 0.00 0.00
10:53 am 10:53 Sunny 13 -10.6 9 -12.8 84 84 SSE 9 15 30.32 1027 9 14 0.00 0.00
11:53 am 11:53 Sunny 15 -9.4 11 -11.7 84 84 S 13 20 30.28 1025 9 14 0.00 0.00
12:53 pm 12:53 Sunny 19 -7.2 14 -10 81 81 S 9 15 30.27 1025 9 14 0.00 0.00
1:53 pm 13:53 Sunny 21 -6.1 16 -8.9 81 81 SSE 8 13 30.23 1024 10 16 0.00 0.00
2:53 pm 14:53 Sunny 22 -5.6 16 -8.9 78 78 SSE 8 13 30.22 1023 9 14 0.00 0.00
3:53 pm 15:53 Sunny 22 -5.6 16 -8.9 78 78 S 7 11 30.22 1023 9 14 0.00 0.00
4:53 pm 16:53 Sunny 20 -6.7 15 -9.4 81 81 S 5 7 30.22 1023 8 13 0.00 0.00
5:53 pm 17:53 Clear 18 -7.8 15 -9.4 88 88 SSE 5 7 30.23 1024 8 13 0.00 0.00
6:53 pm 18:53 Clear 17 -8.3 14 -10 88 88 S 6 9 30.22 1023 7 11 0.00 0.00
7:53 pm 19:53 Clear with Mist and Fog 13 -10.6 11 -11.7 92 92 Calm 30.23 1024 3 5 0.00 0.00
8:15 pm 20:15 Clear with Mist and Fog 10 -12.2 8 -13.3 92 92 Calm 30.30 1026 3 4 0.00 0.00
8:26 pm 20:26 Clear with Mist and Fog 12 -11.1 9 -12.8 87 87 Calm 30.27 1025 3 5 0.00 0.00
8:53 pm 20:53 Clear with Mist and Fog 14 -10 12 -11.1 92 92 SSE 6 9 30.22 1023 5 8 0.00 0.00
9:53 pm 21:53 Clear with Mist and Fog 16 -8.9 14 -10 92 92 SE 5 7 30.21 1023 6 10 0.00 0.00
10:53 pm 22:53 Clear with Mist and Fog 10 -12.2 7 -13.9 87 87 SSE 3 6 30.21 1023 3 5 0.00 0.00
11:53 pm 23:53 Clear with Mist and Fog 17 -8.3 14 -10 88 88 SSE 7 11 30.20 1023 5 8 0.00 0.00

Powered by AerisWeather